Location: Borowce
(50.8255°N, 19.6209°E)
Time: 08:13:21
(UTC+00:00)

CZ-2C R/B - Pass Details

Date: 19 May 2025
Orbit: 631 x 693 km, 98.1° (Epoch: 16 June)

Event Time Altitude Azimuth Distance (km) Brightness Sun altitude
Rises 21:35:25 0° 15° (NNE) 2,941 8.1 -17.9°
Reaches altitude 10° 21:37:38 10° 16° (NNE) 2,026 7.1 -18.0°
Maximum altitude 21:42:03 80° 104° (ESE) 648 3.5 -18.1°
Enters shadow 21:43:46 37° 187° (S) 991 4.1 -18.2°
